Location: Unspecified
(52.0000°N, 4.4000°E)
Time: 23:12:31
(UTC+00:00)

YUBILEINY - Pass Details

Date: 09 September 2025
Orbit: 1478 x 1508 km, 82.5° (Epoch: 10 December)

Event Time Altitude Azimuth Distance (km) Brightness Sun altitude
Rises 23:21:52 0° 348° (NNW) 4,649 ? -32.9°
Reaches altitude 10° 23:24:46 10° 346° (NNW) 3,661 ? -33.0°
Maximum altitude 23:33:28 69° 266° (W) 1,587 ? -33.1°
Enters shadow 23:34:17 65° 236° (SW) 1,616 ? -33.1°
